Location: Prague
(50.0833°N, 14.4667°E)
Time: 19:18:21
(UTC+02:00)

ISS - Pass Details

Date: 27 May 2024
Orbit: 410 x 421 km, 51.6° (Epoch: 12 June)

Event Time Altitude Azimuth Distance (km) Brightness Sun altitude
Rises 19:05:30 0° 281° (W) 2,379 2.0 15.4°
Reaches altitude 10° 19:07:37 10° 284° (WNW) 1,512 2.2 15.0°
Maximum altitude 19:11:00 72° 9° (N) 448 -3.3 14.5°
Drops below altitude 10° 19:14:29 - 95° (E) 1,544 -1.4 14.0°
Sets 19:16:28 0° 97° (E) 2,364 -0.6 13.7°
